[[{"header":{"parameterUnit":"m.s-1","parameterCategory":1,"la1":30.2991,"la2":30.254,"lo1":-89.0895,"lo2":-89.0444,"dy":0.0017,"dx":0.0017,"nx":28,"ny":28,"refTime":"2025-09-12T03:00:00:Z","depth":0,"parameterNumber":2,"parameterNumberName":"U-component_of_WINDS"},"data":[0,0,0,0,0,0,0,0,0,0,0,0,0,0,0,0,0,0,0,0,0,0,0,0,0,0,0,0,0,0,0,0,0,0,0,0,0,0,0,0,0,0,0,0,0,0,0,0,0,0,0,0,0,0,0,0,0,0,-0.3433,-0.3433,0,-0.3411,-0.341,-0.341,-0.3382,-0.3381,-0.3381,-0.338,-0.3356,-0.3356,-0.3356,0,0,0,0,0,0,0,0,0,0,0,0,0,-0.3452,-0.3452,-0.3434,-0.3433,-0.3433,-0.3411,-0.341,-0.341,-0.3382,-0.3381,-0.3381,-0.338,-0.3356,-0.3356,-0.3356,0,0,0,0,0,0,0,0,0,0,0,0,0,-0.3438,-0.3452,-0.3434,-0.3416,-0.3414,-0.3411,-0.341,-0.341,-0.3382,-0.3381,-0.3381,-0.338,-0.3356,-0.3356,-0.3356,-0.3367,0,0,-0.3355,-0.3355,0,0,0,0,0,0,0,0,-0.3439,-0.3438,-0.3419,-0.3417,-0.3415,-0.3398,-0.3408,-0.3396,-0.3382,-0.3394,-0.338,-0.338,-0.3371,-0.3369,-0.3366,-0.3366,-0.3365,-0.3355,-0.3355,-0.3354,-0.3354,0,0,0,0,0,0,0,-0.344,-0.3438,-0.3424,-0.3419,-0.3417,-0.3409,-0.3407,-0.3406,-0.3387,-0.3393,-0.3391,-0.3389,-0.337,-0.3367,-0.3366,-0.3365,-0.3355,-0.3354,-0.3354,-0.3354,-0.3373,-0.3374,0,0,0,0,0,0,-0.3444,-0.3439,-0.3425,-0.3424,-0.3426,-0.341,-0.3407,-0.3405,-0.3386,-0.3383,-0.3389,-0.3388,-0.3368,-0.3366,-0.3365,-0.3377,-0.3354,-0.3354,-0.3354,-0.3372,-0.3373,-0.3374,0,0,0,0,0,0,-0.3444,-0.3443,-0.3426,-0.3431,-0.3428,-0.341,-0.3408,-0.3404,-0.3402,-0.3384,-0.338,-0.339,-0.3367,-0.3365,-0.3367,-0.3376,-0.3354,-0.3354,-0.3372,-0.3373,-0.3374,-0.3402,0,0,0,0,0,0,-0.3445,-0.3443,-0.3447,-0.3431,-0.3428,-0.3429,-0.3408,-0.3404,-0.3401,-0.3399,-0.3383,-0.338,-0.3366,-0.3368,-0.3367,-0.3375,-0.3353,-0.3371,-0.3372,-0.3373,-0.34,-0.3404,-0.3407,0,0,0,0,0,-0.3446,-0.3456,-0.3448,-0.3446,-0.3433,-0.343,-0.3428,-0.3412,-0.3402,-0.3406,-0.3395,-0.3381,-0.3375,-0.3368,-0.3367,-0.3375,-0.337,-0.3372,-0.3373,-0.3399,-0.3404,-0.3407,0,0,0,0,0,0,-0.3473,-0.3453,-0.3444,-0.3449,-0.3441,-0.3425,-0.3429,-0.3417,-0.3412,-0.3409,-0.339,-0.3387,-0.3391,-0.3383,-0.3376,-0.3386,-0.3371,-0.3372,-0.3391,-0.3395,-0.3398,-0.34,-0.3353,0,0,0,0,0,-0.348,-0.3479,-0.3462,-0.3468,-0.3464,-0.3448,-0.3446,-0.3434,-0.3425,-0.3421,-0.341,-0.3401,-0.3398,-0.3396,-0.3391,-0.3399,-0.3396,-0.3404,-0.3408,-0.3411,-0.3412,-0.3416,-0.342,-0.3379,-0.3379,-0.3379,0,0,-0.3493,-0.3483,-0.3483,-0.3473,-0.3466,-0.3465,-0.3445,-0.3445,-0.3444,-0.3421,-0.3422,-0.3414,-0.3403,-0.3408,-0.341,-0.3402,-0.3423,-0.3413,-0.3415,-0.3415,-0.3418,-0.3422,-0.3426,-0.338,-0.338,-0.338,0,0,-0.3518,-0.351,-0.3514,-0.3507,-0.3496,-0.3485,-0.3487,-0.3472,-0.3466,-0.3467,-0.3449,-0.3448,-0.3442,-0.3436,-0.3431,-0.3454,-0.3441,-0.3453,-0.3472,-0.3476,-0.3479,-0.3482,-0.349,-0.3494,-0.3455,-0.3455,-0.3455,0,-0.3536,-0.3535,-0.3518,-0.352,-0.3516,-0.3496,-0.35,-0.3494,-0.3482,-0.348,-0.3472,-0.3464,-0.3455,-0.3459,-0.3465,-0.3462,-0.3463,-0.3455,-0.348,-0.3483,-0.3485,-0.3493,-0.3496,-0.3457,-0.3456,-0.3456,-0.3456,0,-0.3558,-0.3557,-0.3563,-0.3552,-0.3549,-0.3552,-0.3536,-0.3535,-0.3524,-0.3514,-0.3516,-0.3504,-0.3498,-0.3498,-0.3487,-0.35,-0.3495,-0.3484,-0.3468,-0.3491,-0.3498,-0.3501,-0.3459,-0.3458,-0.3458,-0.3457,0,0,-0.3599,-0.358,-0.3582,-0.3578,-0.3564,-0.3563,-0.3565,-0.3559,-0.3559,-0.3552,-0.3553,-0.3549,-0.3538,-0.3533,-0.3522,-0.3525,-0.3545,-0.3513,-0.3513,-0.352,-0.3559,-0.3568,-0.3572,-0.3536,-0.3537,-0.3537,-0.356,0,-0.3622,-0.3625,-0.361,-0.3617,-0.3616,-0.3597,-0.3599,-0.3591,-0.3582,-0.358,-0.357,-0.3567,-0.3553,-0.355,-0.3553,-0.3542,-0.3553,-0.354,-0.3538,-0.3538,-0.3541,-0.3576,-0.3585,-0.3607,-0.3563,-0.3563,-0.3564,0,-0.3648,-0.3643,-0.365,-0.3637,-0.3636,-0.3638,-0.3631,-0.363,-0.3621,-0.3614,-0.3609,-0.3595,-0.3597,-0.3582,-0.3584,-0.3576,-0.3574,-0.3568,-0.3569,-0.3568,-0.3552,-0.3576,-0.3614,-0.3617,-0.3568,-0.3567,-0.3567,0,-0.3678,-0.3672,-0.3676,-0.3672,-0.3657,-0.3659,-0.3653,-0.3643,-0.364,-0.3635,-0.3633,-0.3627,-0.3624,-0.362,-0.3606,-0.3597,-0.361,-0.3594,-0.3604,-0.3604,-0.3608,-0.3608,-0.3646,-0.3606,-0.3606,-0.3606,-0.3606,0,-0.3705,-0.371,-0.3689,-0.3692,-0.3697,-0.368,-0.3686,-0.3677,-0.3669,-0.3669,-0.3652,-0.3653,-0.3634,-0.3632,-0.3621,-0.3624,-0.3623,-0.3617,-0.3614,-0.3619,-0.362,-0.3618,-0.3616,-0.3607,-0.3607,-0.3606,-0.3606,0,-0.3739,-0.3725,-0.3728,-0.3714,-0.371,-0.3715,-0.3702,-0.3704,-0.3693,-0.3694,-0.3693,-0.3677,-0.3675,-0.366,-0.3654,-0.3647,-0.3654,-0.3648,-0.3657,-0.3656,-0.3667,-0.3666,-0.3705,-0.371,-0.3667,-0.3667,-0.3668,0,-0.3757,-0.3761,-0.3747,-0.3746,-0.3741,-0.3739,-0.3737,-0.3721,-0.3719,-0.3709,-0.3712,-0.3708,-0.3704,-0.3701,-0.3689,-0.3684,-0.3678,-0.3692,-0.3677,-0.3682,-0.3678,-0.3679,-0.3679,-0.3695,-0.3696,-0.3696,-0.3696,0,-0.3791,-0.3784,-0.3782,-0.3777,-0.3774,-0.3769,-0.3764,-0.3764,-0.3746,-0.3745,-0.3742,-0.3739,-0.3733,-0.373,-0.3723,-0.3716,-0.3704,-0.3701,-0.3703,-0.3708,-0.3714,-0.3712,-0.3666,-0.37,-0.37,-0.37,-0.3699,-0.3699,-0.3818,-0.3821,-0.3811,-0.3809,-0.3803,-0.3798,-0.3799,-0.3789,-0.3787,-0.3781,-0.3772,-0.3771,-0.3761,-0.3751,-0.3746,-0.3745,-0.3737,-0.374,-0.3741,-0.3742,-0.3745,-0.3714,-0.3743,-0.3743,-0.3743,-0.3743,-0.3743,0,-0.3852,-0.3845,-0.3843,-0.3835,-0.3834,-0.3822,-0.3815,-0.3814,-0.3814,-0.3806,-0.3803,-0.38,-0.3797,-0.3785,-0.378,-0.3782,-0.3776,-0.3781,-0.3781,-0.378,-0.3752,-0.3751,-0.3786,-0.3786,-0.3786,-0.3786,-0.3786,-0.3786,-0.3869,-0.3873,-0.3865,-0.3866,-0.3859,-0.3858,-0.3855,-0.385,-0.3845,-0.3843,-0.384,-0.3832,-0.3823,-0.3818,-0.3814,-0.3811,-0.381,-0.3817,-0.3812,-0.3786,-0.3782,-0.3778,-0.3777,-0.3817,-0.3817,-0.384,-0.3841,-0.3841]},{"header":{"parameterUnit":"m.s-1","parameterCategory":1,"la1":30.2991,"la2":30.254,"lo1":-89.0895,"lo2":-89.0444,"dy":0.0017,"dx":0.0017,"nx":28,"ny":28,"refTime":"2025-09-12T03:00:00:Z","depth":0,"parameterNumber":3,"parameterNumberName":"V-component_of_WINDS"},"data":[0,0,0,0,0,0,0,0,0,0,0,0,0,0,0,0,0,0,0,0,0,0,0,0,0,0,0,0,0,0,0,0,0,0,0,0,0,0,0,0,0,0,0,0,0,0,0,0,0,0,0,0,0,0,0,0,0,0,1.2531,1.253,0,1.2466,1.2466,1.2465,1.2428,1.2428,1.2428,1.2428,1.2359,1.2357,1.2355,0,0,0,0,0,0,0,0,0,0,0,0,0,1.2618,1.2617,1.2531,1.253,1.2529,1.2467,1.2466,1.2465,1.2428,1.2428,1.2428,1.2428,1.2359,1.2357,1.2355,0,0,0,0,0,0,0,0,0,0,0,0,0,1.257,1.2616,1.2531,1.2503,1.25,1.2467,1.2466,1.2465,1.2428,1.2428,1.2428,1.2427,1.236,1.2357,1.2355,1.2343,0,0,1.2347,1.2346,0,0,0,0,0,0,0,0,1.2572,1.2566,1.2508,1.2505,1.2502,1.2455,1.2471,1.2424,1.2428,1.2455,1.2428,1.2427,1.2391,1.2385,1.2374,1.2339,1.2336,1.2347,1.2345,1.2344,1.2343,0,0,0,0,0,0,0,1.2576,1.2569,1.2505,1.2507,1.2503,1.2493,1.2486,1.2462,1.2425,1.2453,1.245,1.2443,1.2389,1.2376,1.2372,1.2335,1.2347,1.2344,1.2343,1.2342,1.2287,1.2287,0,0,0,0,0,0,1.2584,1.2572,1.2507,1.2503,1.2537,1.2492,1.2484,1.247,1.2425,1.2418,1.2443,1.2442,1.2381,1.2375,1.2369,1.2351,1.2344,1.2342,1.234,1.2287,1.2287,1.2287,0,0,0,0,0,0,1.2586,1.2579,1.251,1.2537,1.2527,1.249,1.2475,1.2469,1.2457,1.2418,1.2411,1.2438,1.238,1.2373,1.2349,1.2348,1.234,1.2338,1.2286,1.2287,1.2287,1.2316,0,0,0,0,0,0,1.2589,1.258,1.2576,1.2537,1.2526,1.2492,1.2475,1.2468,1.2453,1.245,1.2411,1.2404,1.238,1.2354,1.2347,1.2345,1.2336,1.2286,1.2286,1.2287,1.2315,1.2317,1.2319,0,0,0,0,0,1.2592,1.2586,1.2576,1.2568,1.252,1.2492,1.2486,1.2459,1.2453,1.2448,1.2423,1.2405,1.235,1.2352,1.2344,1.2341,1.2286,1.2286,1.2287,1.2314,1.2317,1.2319,0,0,0,0,0,0,1.2624,1.258,1.2568,1.255,1.2525,1.2486,1.2479,1.2463,1.2439,1.2437,1.2404,1.2395,1.2375,1.2355,1.2358,1.2326,1.2316,1.2315,1.234,1.2342,1.2344,1.2349,1.2334,0,0,0,0,0,1.263,1.2612,1.2574,1.2561,1.2549,1.2517,1.2503,1.2485,1.2458,1.2447,1.242,1.2393,1.2369,1.2355,1.2331,1.2312,1.2302,1.2306,1.2308,1.231,1.2309,1.2297,1.2298,1.2287,1.2287,1.2287,0,0,1.264,1.2613,1.2604,1.2567,1.2546,1.2527,1.2508,1.2489,1.2474,1.2443,1.242,1.2399,1.2367,1.2346,1.2335,1.2329,1.231,1.231,1.2312,1.231,1.2297,1.2298,1.2299,1.2287,1.2287,1.2287,0,0,1.2648,1.2627,1.2614,1.2593,1.2561,1.254,1.2536,1.25,1.2485,1.2461,1.2437,1.2419,1.2379,1.2357,1.234,1.234,1.2323,1.2333,1.2343,1.2332,1.2333,1.2333,1.2332,1.2332,1.2332,1.2332,1.2332,0,1.2665,1.2636,1.2609,1.2591,1.2575,1.2547,1.2533,1.2513,1.2475,1.2464,1.2458,1.2407,1.2384,1.2356,1.2356,1.2344,1.2339,1.2337,1.2335,1.2335,1.2335,1.2334,1.2334,1.2334,1.2334,1.2334,1.2333,0,1.2657,1.2638,1.2631,1.2595,1.2578,1.2562,1.2531,1.2517,1.25,1.2479,1.2454,1.2424,1.2394,1.2386,1.2369,1.2356,1.2353,1.2342,1.2331,1.2338,1.2336,1.2336,1.2336,1.2335,1.2335,1.2335,0,0,1.2685,1.2634,1.2632,1.2615,1.2578,1.2562,1.2544,1.2515,1.2503,1.2477,1.2461,1.2428,1.2417,1.2398,1.2378,1.2368,1.2368,1.2357,1.2356,1.2359,1.2351,1.236,1.236,1.2357,1.2356,1.2356,1.2353,0,1.2687,1.2655,1.263,1.2607,1.2587,1.2561,1.2545,1.2519,1.2499,1.2478,1.2455,1.2432,1.2419,1.2408,1.2396,1.2371,1.2366,1.237,1.2339,1.2339,1.2348,1.2359,1.2368,1.2367,1.2353,1.2352,1.2352,0,1.2687,1.2663,1.2638,1.2602,1.2593,1.2579,1.255,1.2532,1.2502,1.2487,1.2467,1.2446,1.2424,1.2416,1.2385,1.2389,1.2374,1.236,1.2359,1.2354,1.2346,1.2354,1.2366,1.2365,1.2351,1.2351,1.2351,0,1.2708,1.267,1.265,1.2636,1.2594,1.2585,1.2567,1.2537,1.2521,1.2495,1.2484,1.2456,1.244,1.2418,1.239,1.2386,1.2361,1.2351,1.2347,1.2348,1.2343,1.2344,1.2352,1.2335,1.2335,1.2335,1.2335,0,1.2714,1.2699,1.2659,1.2646,1.2629,1.2599,1.2583,1.2562,1.2535,1.2517,1.2492,1.2476,1.244,1.2418,1.2396,1.2373,1.2366,1.2353,1.2347,1.2355,1.2357,1.2345,1.2344,1.2335,1.2335,1.2335,1.2335,0,1.2735,1.2707,1.2683,1.2645,1.2635,1.2624,1.2591,1.2577,1.2555,1.2533,1.2526,1.249,1.2464,1.2433,1.2397,1.2382,1.236,1.2352,1.2371,1.2367,1.2365,1.2366,1.2366,1.2364,1.2349,1.235,1.235,0,1.274,1.2728,1.2689,1.2676,1.2659,1.2637,1.2621,1.2591,1.2575,1.2539,1.253,1.2502,1.2477,1.2436,1.2406,1.2378,1.2368,1.237,1.2364,1.2372,1.2367,1.2368,1.2366,1.2372,1.2372,1.2373,1.2373,0,1.2752,1.2739,1.2716,1.2689,1.2671,1.2648,1.2623,1.2614,1.2578,1.2561,1.2534,1.2516,1.2478,1.245,1.2418,1.2398,1.2379,1.2375,1.2373,1.238,1.2392,1.2385,1.2375,1.2375,1.2375,1.2375,1.2375,1.2375,1.2764,1.2752,1.2723,1.2699,1.2678,1.2656,1.2641,1.2617,1.2594,1.2562,1.2545,1.2518,1.2488,1.2443,1.2423,1.2401,1.2394,1.2391,1.239,1.239,1.2391,1.2396,1.2395,1.2394,1.2394,1.2394,1.2394,0,1.2774,1.2754,1.2732,1.2699,1.268,1.2665,1.2637,1.2622,1.2599,1.2572,1.2549,1.2518,1.249,1.2458,1.2428,1.2417,1.2407,1.241,1.241,1.2405,1.2399,1.2404,1.2418,1.2418,1.2418,1.2418,1.2418,1.2418,1.2777,1.2756,1.2739,1.2707,1.2686,1.266,1.2646,1.2625,1.2603,1.257,1.2547,1.2527,1.2497,1.2465,1.2439,1.243,1.242,1.2425,1.2413,1.2408,1.2406,1.2404,1.2408,1.2423,1.2423,1.2421,1.2421,1.2421]}]]